| time (UTC) | temp F | wind direction | speed MPH | gust MPH | rain 1hr in | rain 24hr in | rain mn in | humidity % | barometer mb |
| 20260831011519 | 58 | 0.0 | 0.0 | 0.00 | 0.00 | 0.00 | 82 | 1019.1 | |
| 20260831010054 | 58 | 0.0 | 0.0 | 0.00 | 0.00 | 0.00 | 82 | 1019.2 | |
| 20260831005019 | 57 | 0.0 | 0.0 | 0.00 | 0.00 | 0.00 | 82 | 1019.3 | |
| 20260831004107 | 57 | 0.0 | 0.0 | 0.00 | 0.00 | 0.00 | 82 | 1019.5 | |
| 20260831003056 | 58 | 0.0 | 0.0 | 0.00 | 0.00 | 0.00 | 82 | 1019.6 | |
| 20260831002044 | 57 | 0.0 | 0.0 | 0.00 | 0.00 | 0.00 | 84 | 1019.8 | |
| 20260831001031 | 57 | 0.0 | 0.0 | 0.00 | 0.00 | 0.00 | 84 | 1020.0 | |
| 20260830235609 | 58 | 0.0 | 0.0 | 0.00 | 0.00 | 0.00 | 84 | 1020.3 | |
| 20260830234108 | 58 | 0.0 | 0.0 | 0.00 | 0.00 | 0.00 | 84 | 1020.5 | |
| 20260830233018 | 58 | 0.0 | 0.0 | 0.00 | 0.00 | 0.00 | 84 | 1020.3 | |
| 20260830232106 | 58 | 0.0 | 0.0 | 0.00 | 0.00 | 0.00 | 84 | 1020.3 | |
| 20260830231033 | 57 | 0.0 | 0.0 | 0.00 | 0.00 | 0.00 | 84 | 1020.4 | |
| 20260830225609 | 58 | 0.0 | 0.0 | 0.00 | 0.00 | 0.00 | 83 | 1020.4 | |
| 20260830224030 | 58 | 0.0 | 0.0 | 0.00 | 0.00 | 0.00 | 83 | 1020.5 | |
| 20260830223019 | 59 | 0.0 | 0.0 | 0.00 | 0.00 | 0.00 | 82 | 1020.4 | |
| 20260830222107 | 59 | 0.0 | 0.0 | 0.00 | 0.00 | 0.00 | 81 | 1020.4 | |
| 20260830220518 | 59 | 0.0 | 0.0 | 0.00 | 0.00 | 0.00 | 80 | 1020.5 | |
| 20260830215608 | 60 | 0.0 | 0.0 | 0.00 | 0.00 | 0.00 | 79 | 1020.6 | |
| 20260830214106 | 60 | 0.0 | 0.0 | 0.00 | 0.00 | 0.00 | 80 | 1020.4 | |
| 20260830213019 | 60 | 0.0 | 0.0 | 0.00 | 0.00 | 0.00 | 80 | 1020.5 | |
| 20260830212107 | 60 | 0.0 | 0.0 | 0.00 | 0.00 | 0.00 | 78 | 1020.6 | |
| 20260830210519 | 61 | 0.0 | 0.0 | 0.00 | 0.00 | 0.00 | 76 | 1020.6 | |
| 20260830205609 | 61 | 0.0 | 0.0 | 0.00 | 0.00 | 0.00 | 77 | 1020.6 | |
| 20260830204109 | 62 | 0.0 | 0.0 | 0.00 | 0.00 | 0.00 | 75 | 1020.6 | |
| 20260830202608 | 62 | 0.0 | 0.0 | 0.00 | 0.00 | 0.00 | 75 | 1020.4 | |
| 20260830201518 | 63 | 0.0 | 0.0 | 0.00 | 0.00 | 0.00 | 74 | 1020.5 | |
| 20260830200606 | 63 | 0.0 | 0.0 | 0.00 | 0.00 | 0.00 | 72 | 1020.4 | |
| 20260830195518 | 62 | 0.0 | 0.0 | 0.00 | 0.00 | 0.00 | 73 | 1020.5 | |
| 20260830194608 | 63 | 0.0 | 0.0 | 0.00 | 0.00 | 0.00 | 72 | 1020.4 | |
| 20260830193520 | 63 | 0.0 | 0.0 | 0.00 | 0.00 | 0.00 | 71 | 1020.4 | |
| 20260830192607 | 64 | 0.0 | 0.0 | 0.00 | 0.00 | 0.00 | 70 | 1020.4 | |
| 20260830191519 | 64 | 0.0 | 0.0 | 0.00 | 0.00 | 0.00 | 69 | 1020.4 | |
| 20260830190112 | 64 | 0.0 | 0.0 | 0.00 | 0.00 | 0.00 | 68 | 1020.3 | |
| 20260830184608 | 66 | 0.0 | 0.0 | 0.00 | 0.00 | 0.00 | 66 | 1020.1 | |
| 20260830183518 | 67 | 0.0 | 0.0 | 0.00 | 0.00 | 0.00 | 64 | 1020.1 | |
| 20260830182608 | 68 | 0.0 | 0.0 | 0.00 | 0.00 | 0.00 | 63 | 1020.1 | |
| 20260830181520 | 69 | 0.0 | 0.0 | 0.00 | 0.00 | 0.00 | 61 | 1020.0 | |
| 20260830180108 | 70 | 0.0 | 0.0 | 0.00 | 0.00 | 0.00 | 60 | 1019.9 | |
| 20260830175019 | 71 | 0.0 | 0.0 | 0.00 | 0.00 | 0.00 | 57 | 1019.8 | |
| 20260830174107 | 72 | 0.0 | 0.0 | 0.00 | 0.00 | 0.00 | 56 | 1019.8 | |
| 20260830172606 | 73 | 0.0 | 0.0 | 0.00 | 0.00 | 0.00 | 54 | 1019.6 | |
| 20260830171519 | 74 | 298 | 1.0 | 4.0 | 0.00 | 0.00 | 0.00 | 52 | 1019.4 |
| 20260830170106 | 74 | 270 | 2.0 | 2.0 | 0.00 | 0.00 | 0.00 | 50 | 1019.3 |
| 20260830165020 | 75 | 225 | 0.0 | 2.0 | 0.00 | 0.00 | 0.00 | 51 | 1019.3 |
| 20260830164107 | 75 | 292 | 2.0 | 7.0 | 0.00 | 0.00 | 0.00 | 49 | 1019.4 |
| 20260830162606 | 76 | 315 | 2.0 | 4.0 | 0.00 | 0.00 | 0.00 | 48 | 1019.2 |
| 20260830161520 | 76 | 321 | 4.0 | 9.0 | 0.00 | 0.00 | 0.00 | 48 | 1019.2 |
| 20260830160107 | 76 | 293 | 4.0 | 7.0 | 0.00 | 0.00 | 0.00 | 49 | 1019.2 |
| 20260830155018 | 77 | 299 | 3.0 | 11.0 | 0.00 | 0.00 | 0.00 | 49 | 1019.1 |
| 20260830154107 | 77 | 293 | 3.0 | 8.0 | 0.00 | 0.00 | 0.00 | 49 | 1019.1 |
| 20260830153049 | 78 | 330 | 5.0 | 11.0 | 0.00 | 0.00 | 0.00 | 48 | 1019.2 |
| 20260830152043 | 78 | 330 | 4.0 | 11.0 | 0.00 | 0.00 | 0.00 | 49 | 1019.2 |
| 20260830151032 | 79 | 281 | 2.0 | 4.0 | 0.00 | 0.00 | 0.00 | 48 | 1019.2 |
| 20260830145608 | 79 | 264 | 5.0 | 15.0 | 0.00 | 0.00 | 0.00 | 47 | 1019.1 |
| 20260830144107 | 78 | 68 | 4.0 | 9.0 | 0.00 | 0.00 | 0.00 | 48 | 1019.1 |
| 20260830143055 | 79 | 311 | 7.0 | 17.0 | 0.00 | 0.00 | 0.00 | 48 | 1019.1 |
| 20260830142043 | 79 | 287 | 3.0 | 11.0 | 0.00 | 0.00 | 0.00 | 50 | 1019.0 |
| 20260830141030 | 78 | 277 | 5.0 | 13.0 | 0.00 | 0.00 | 0.00 | 50 | 1019.0 |
| 20260830135535 | 80 | 226 | 3.0 | 11.0 | 0.00 | 0.00 | 0.00 | 50 | 1019.0 |
| 20260830134530 | 80 | 332 | 5.0 | 16.0 | 0.00 | 0.00 | 0.00 | 50 | 1019.1 |
| 20260830133520 | 78 | 292 | 4.0 | 16.0 | 0.00 | 0.00 | 0.00 | 51 | 1019.1 |
| 20260830132108 | 76 | 343 | 4.0 | 13.0 | 0.00 | 0.00 | 0.00 | 54 | 1019.1 |
| 20260830130518 | 76 | 304 | 4.0 | 11.0 | 0.00 | 0.00 | 0.00 | 55 | 1019.0 |
| 20260830125608 | 77 | 307 | 5.0 | 11.0 | 0.00 | 0.00 | 0.00 | 54 | 1019.0 |
| 20260830124108 | 78 | 326 | 5.0 | 17.0 | 0.00 | 0.00 | 0.00 | 54 | 1019.0 |
| 20260830122608 | 77 | 293 | 6.0 | 11.0 | 0.00 | 0.00 | 0.00 | 55 | 1019.1 |
| 20260830121519 | 76 | 290 | 8.0 | 16.0 | 0.00 | 0.00 | 0.00 | 57 | 1019.1 |
| 20260830120107 | 75 | 225 | 6.0 | 11.0 | 0.00 | 0.00 | 0.00 | 58 | 1019.1 |
| 20260830115035 | 75 | 309 | 9.0 | 18.0 | 0.00 | 0.00 | 0.00 | 59 | 1019.1 |
| 20260830114025 | 76 | 287 | 7.0 | 17.0 | 0.00 | 0.00 | 0.00 | 59 | 1019.1 |
| 20260830113019 | 74 | 280 | 4.0 | 16.0 | 0.00 | 0.00 | 0.00 | 61 | 1019.2 |
| 20260830112106 | 74 | 338 | 8.0 | 15.0 | 0.00 | 0.00 | 0.00 | 62 | 1019.3 |
| 20260830111035 | 73 | 306 | 6.0 | 15.0 | 0.00 | 0.00 | 0.00 | 63 | 1019.3 |
| 20260830105608 | 72 | 187 | 5.0 | 17.0 | 0.00 | 0.00 | 0.00 | 63 | 1019.3 |
| 20260830104107 | 70 | 299 | 5.0 | 13.0 | 0.00 | 0.00 | 0.00 | 63 | 1019.3 |
| 20260830102606 | 70 | 296 | 6.0 | 11.0 | 0.00 | 0.00 | 0.00 | 65 | 1019.5 |
| 20260830101530 | 69 | 296 | 6.0 | 11.0 | 0.00 | 0.00 | 0.00 | 67 | 1019.7 |
| 20260830100521 | 70 | 261 | 3.0 | 11.0 | 0.00 | 0.00 | 0.00 | 70 | 1019.6 |
| 20260830095609 | 69 | 292 | 3.0 | 11.0 | 0.00 | 0.00 | 0.00 | 70 | 1019.5 |
| 20260830094107 | 71 | 338 | 2.0 | 7.0 | 0.00 | 0.00 | 0.00 | 66 | 1019.6 |
| 20260830092530 | 73 | 262 | 2.0 | 11.0 | 0.00 | 0.00 | 0.00 | 63 | 1019.0 |
| 20260830091520 | 73 | 255 | 6.0 | 16.0 | 0.00 | 0.00 | 0.00 | 62 | 1018.9 |
| 20260830090106 | 74 | 293 | 6.0 | 13.0 | 0.00 | 0.00 | 0.00 | 60 | 1018.8 |
| 20260830085031 | 75 | 288 | 6.0 | 15.0 | 0.00 | 0.00 | 0.00 | 60 | 1018.7 |
| 20260830083536 | 74 | 299 | 5.0 | 13.0 | 0.00 | 0.00 | 0.00 | 61 | 1018.7 |
| 20260830082531 | 74 | 247 | 5.0 | 16.0 | 0.00 | 0.00 | 0.00 | 61 | 1018.7 |
| 20260830081519 | 74 | 332 | 6.0 | 16.0 | 0.00 | 0.00 | 0.00 | 61 | 1018.7 |
| 20260830080107 | 72 | 276 | 3.0 | 7.0 | 0.00 | 0.00 | 0.00 | 63 | 1018.5 |
| 20260830074606 | 72 | 242 | 6.0 | 11.0 | 0.00 | 0.00 | 0.00 | 63 | 1018.6 |
| 20260830073519 | 73 | 317 | 6.0 | 16.0 | 0.00 | 0.00 | 0.00 | 62 | 1018.3 |
| 20260830072606 | 73 | 326 | 5.0 | 14.0 | 0.00 | 0.00 | 0.00 | 63 | 1018.4 |
| 20260830071519 | 73 | 301 | 4.0 | 14.0 | 0.00 | 0.00 | 0.00 | 63 | 1018.1 |
| 20260830070108 | 72 | 113 | 2.0 | 2.0 | 0.00 | 0.00 | 0.00 | 63 | 1018.0 |
| 20260830065022 | 72 | 147 | 2.0 | 8.0 | 0.00 | 0.00 | 0.00 | 63 | 1017.9 |
| 20260830064110 | 72 | 90 | 4.0 | 9.0 | 0.00 | 0.00 | 0.00 | 63 | 1017.9 |
| 20260830063019 | 72 | 77 | 2.0 | 7.0 | 0.00 | 0.00 | 0.00 | 63 | 1017.8 |
| 20260830062107 | 71 | 85 | 1.0 | 4.0 | 0.00 | 0.00 | 0.00 | 64 | 1018.0 |
| 20260830060518 | 71 | 356 | 1.0 | 4.0 | 0.00 | 0.00 | 0.00 | 64 | 1018.1 |
| 20260830055607 | 70 | 141 | 2.0 | 11.0 | 0.00 | 0.00 | 0.00 | 65 | 1018.0 |
| 20260830054109 | 69 | 324 | 2.0 | 7.0 | 0.00 | 0.00 | 0.00 | 65 | 1018.0 |
| 20260830052556 | 67 | 68 | 1.0 | 2.0 | 0.00 | 0.00 | 0.00 | 68 | 1018.1 |
| 20260830051519 | 67 | 322 | 0.0 | 2.0 | 0.00 | 0.00 | 0.00 | 68 | 1018.0 |
| 20260830050109 | 66 | 330 | 0.0 | 2.0 | 0.00 | 0.00 | 0.00 | 68 | 1018.0 |
| 20260830044531 | 66 | 17 | 1.0 | 4.0 | 0.00 | 0.00 | 0.00 | 67 | 1017.8 |
| 20260830043520 | 66 | 13 | 0.0 | 4.0 | 0.00 | 0.00 | 0.00 | 68 | 1017.7 |
| 20260830042030 | 66 | 77 | 1.0 | 6.0 | 0.00 | 0.00 | 0.00 | 68 | 1017.8 |
| 20260830041020 | 67 | 0.0 | 2.0 | 0.00 | 0.00 | 0.00 | 68 | 1018.0 | |
| 20260830040111 | 67 | 72 | 1.0 | 4.0 | 0.00 | 0.00 | 0.00 | 67 | 1018.0 |
| 20260830035059 | 67 | 116 | 1.0 | 4.0 | 0.00 | 0.00 | 0.00 | 66 | 1018.0 |
| 20260830034054 | 68 | 203 | 1.0 | 2.0 | 0.00 | 0.00 | 0.00 | 66 | 1018.0 |
| 20260830033018 | 68 | 188 | 1.0 | 4.0 | 0.00 | 0.00 | 0.00 | 65 | 1017.9 |
| 20260830032109 | 69 | 120 | 2.0 | 6.0 | 0.00 | 0.00 | 0.00 | 65 | 1018.0 |
| 20260830030554 | 69 | 113 | 1.0 | 4.0 | 0.00 | 0.00 | 0.00 | 65 | 1018.2 |
| 20260830025607 | 69 | 138 | 1.0 | 4.0 | 0.00 | 0.00 | 0.00 | 64 | 1018.1 |
| 20260830024555 | 69 | 113 | 2.0 | 4.0 | 0.00 | 0.00 | 0.00 | 64 | 1018.1 |
| 20260830023608 | 69 | 76 | 1.0 | 2.0 | 0.00 | 0.00 | 0.00 | 65 | 1018.2 |
| 20260830022554 | 69 | 163 | 1.0 | 4.0 | 0.00 | 0.00 | 0.00 | 64 | 1018.2 |
| 20260830021535 | 68 | 355 | 0.0 | 4.0 | 0.00 | 0.00 | 0.00 | 66 | 1018.1 |
| 20260830020523 | 67 | 126 | 1.0 | 4.0 | 0.00 | 0.00 | 0.00 | 70 | 1018.0 |
| 20260830015608 | 68 | 169 | 0.0 | 2.0 | 0.00 | 0.00 | 0.00 | 68 | 1018.1 |
| 20260830014108 | 69 | 0 | 0.0 | 2.0 | 0.00 | 0.00 | 0.00 | 64 | 1018.2 |
| 20260830012554 | 69 | 113 | 1.0 | 2.0 | 0.00 | 0.00 | 0.00 | 64 | 1018.1 |